COSMOS 249 DEB, 14410

Orbit data source: Space-Track

COSMOS 249 DEB, 14410 is space debris in LEO originally from a launch on Sun, 20 Oct 1968 UTC launched from the Tyuratam Missile And Space Complex (TTMTR). Debris objects in space refer to the collection of defunct objects orbiting the Earth. Examples of debris include non-operational satellites, rocket bodies, and fragments generated from explosions, collisions, or faulty payload assembly.

Loading next visibility...
Identifier
14410, 1968-091CL
Orbit
LEO
Country
Flag of CISCIS
Related business
Manufacturer
Unknown
Mission
Spacecraft
Bus & Motor
Unknown
Mass
Unknown
Launch date (UTC)
1968-10-20 (58 years ago)
Launch vehicle
Unknown
Launch site
Tyuratam Missile And Space Complex (TTMTR)
Object type
Payload
Rocket body
Debris
Shape & HBR
Unknown shape, 0.1 m
Radar Cross Section
Small (<0.1 m²)

Expand to show TLE details & history
Last TLE update: 2 days ago

TLE from 2 days ago
0 COSMOS 249 DEB
1 14410U 68091CL  26125.09332262  .00003483  00000-0  12600-2 0  9996
2 14410  62.2063   2.3168 0298547 281.5886 231.7603 14.13115577 98086
Epoch: 2026-05-05T02:14Z
TLE epoch observation values (Epoch: 2026-05-05T02:14:23.074Z)
Latitude
25.68486°
Longitude
-88.85987°
Altitude
988.064 km
Speed
7.29 km/s
True Right ascension
11h 10m 50s
True Declination
25° 33' 18"
Sunlit
Object was in daylight at epoch
Visualization orbit readout
Latitude
Unknown
Longitude
Unknown
Altitude
Unknown
Speed
Unknown
Apparent Right ascension
Unknown
Apparent Declination
Unknown
Sunlit
N/A
Visualization observer readout
Local Sidereal Time
04:13:25
Azimuth
Unknown
Elevation
Unknown
Doppler factor
Unknown
Orbital elements
Apogee altitude
1,063.398 km
Perigee altitude
631.949 km
Semi-major axis
7,225.81 km
Eccentricity
0.02985
Inclination
62.2063°
RAAN
2.3168°
Arg. of periapsis
281.5886°
True anomaly
229.13491°
Mean anomaly
231.7603°
Eccentric anomaly
230.44151°
Mean motion
3.53357 °/min
Orbital period
101.88 mins
BSTAR
0.00126
Loading maneuver chart data...
Computing Atmospheric mass density...
Loading historical data...
Loading historical data...
Loading historical data...
Loading historical data...
Loading historical data...
Loading historical data...
Loading historical data...

Documentation

Showing up to 5 results
|